Location: Bremen
(53.0793°N, 8.8017°E)
Time: 11:20:36
(UTC+02:00)

Altair - Pass Details

Date: 17 April 2024
Orbit: 1501 x 1682 km, 47.2° (Epoch: 17 May)

Event Time Altitude Azimuth Distance (km) Brightness Sun altitude
Rises 03:19:32 0° 284° (WNW) 4,802 9.9 -21.7°
Reaches altitude 10° 03:23:04 10° 276° (W) 3,787 9.3 -21.5°
Maximum altitude 03:31:06 32° 218° (SW) 2,408 7.9 -20.8°
Drops below altitude 10° 03:38:56 10° 160° (SSE) 3,672 9.2 -20.1°
Sets 03:42:19 0° 150° (SSE) 4,637 9.8 -19.9°
